Theta_e
322 324 322 321 321 322 322 324 325 324 324 325 325 325 326 326 327 328 328 339 346 354 356 358 357 354 351 349 346 343 339 336 334 334 333 332 330 329 330 330 329 328 328
321 321 319 319 319 321 323 323 323 322 322 322 323 324 325 325 326 326 327 330 336 345 354 356 357 358 354 351 348 344 340 337 335 335 333 332 330 329 330 331 330 328 327
320 319 319 319 319 321 322 321 321 321 321 321 321 323 324 324 324 326 326 327 330 336 341 346 353 356 355 354 351 346 342 338 336 336 333 332 330 330 332 331 329 328 327
319 319 319 319 320 319 319 320 319 320 319 319 319 321 322 322 324 324 326 326 329 328 333 341 345 348 354 355 353 350 345 339 337 336 334 333 331 331 330 330 328 328 326
319 317 318 318 318 317 318 319 318 318 318 318 319 321 319 322 322 323 324 325 326 327 327 331 336 341 346 351 354 352 348 342 338 337 335 333 331 331 329 330 328 327 325
318 316 317 317 317 316 317 318 318 318 318 317 318 318 319 320 320 321 322 323 324 325 326 327 330 330 337 344 350 351 350 346 340 338 336 333 332 331 330 330 327 326 325
318 316 316 316 316 315 316 318 317 316 316 317 315 316 317 319 320 320 321 321 321 323 324 324 326 327 331 334 344 349 352 350 344 340 336 335 332 331 331 329 327 325 324
317 316 316 315 315 315 316 317 315 315 315 316 314 312 310 314 317 320 320 320 319 321 321 322 325 326 328 331 339 346 349 350 348 343 338 334 333 332 332 329 327 325 324
318 317 316 316 316 316 315 317 316 315 313 315 316 315 308 307 312 316 318 318 319 319 320 320 323 324 326 330 338 342 346 345 348 346 341 336 334 332 332 330 327 325 325
317 318 317 316 316 316 316 318 316 316 316 312 315 316 316 316 310 307 315 316 319 318 319 319 321 323 325 331 335 339 340 342 346 346 344 338 335 333 333 330 327 326 326
317 318 318 317 316 316 316 317 317 317 316 315 314 314 313 313 313 311 307 310 315 317 318 319 319 322 324 327 328 330 334 338 340 341 343 339 337 334 333 330 327 326 326
316 318 318 317 316 317 318 317 318 317 315 314 314 314 314 313 312 311 308 309 309 313 317 318 319 320 323 322 324 329 331 334 334 335 337 338 337 334 333 331 328 327 327
316 318 317 316 317 317 317 317 316 316 315 315 315 315 314 314 314 313 311 309 307 312 314 317 319 319 320 321 323 327 330 331 330 330 331 333 334 334 333 330 328 327 328
316 316 315 315 316 317 317 317 316 316 316 316 315 315 314 315 314 313 313 311 306 307 310 313 317 319 318 320 321 324 325 329 329 326 327 329 330 331 331 330 329 329 330
316 315 316 316 316 316 316 316 315 315 315 315 316 315 314 315 314 314 313 313 310 303 304 310 313 317 316 319 318 323 322 326 330 325 324 325 326 326 326 326 326 326 327
317 316 316 316 316 317 317 316 315 315 314 315 315 315 314 314 314 313 312 311 311 309 303 310 312 314 316 315 319 320 320 324 328 326 324 322 323 323 323 323 324 324 323
317 317 316 316 317 317 316 315 314 314 313 313 314 313 314 314 313 313 312 310 309 309 306 309 312 314 315 314 316 318 321 326 331 325 325 323 320 321 320 321 321 321 321
318 318 317 317 317 317 316 314 313 314 313 312 313 312 312 314 313 312 311 310 310 310 309 307 311 311 313 314 316 316 319 327 330 328 324 321 319 318 319 319 318 317 316
318 318 317 317 317 317 315 314 313 313 312 312 312 312 312 311 310 310 310 309 310 310 310 308 308 313 313 313 314 316 318 323 327 326 321 320 318 318 317 316 315 313 311
317 317 317 317 317 316 315 314 313 312 311 311 311 311 310 309 308 308 308 309 309 309 310 310 309 308 311 313 312 312 314 320 320 323 322 319 318 318 316 315 313 312 309
317 317 316 316 316 314 312 312 311 310 309 308 308 308 308 308 310 311 309 309 309 309 308 307 307 308 308 309 309 313 312 316 317 319 317 316 317 316 315 314 314 311 307
316 316 315 315 312 311 306 305 309 308 306 305 305 306 306 308 308 309 309 310 309 307 305 304 305 304 307 309 310 310 311 311 311 318 314 312 315 313 313 312 311 307 306
313 313 311 310 309 308 302 301 303 306 304 304 304 304 304 305 307 306 306 307 307 307 307 307 304 305 305 309 311 309 309 309 310 314 312 309 312 309 311 310 307 305 304
310 308 307 307 306 306 301 299 300 304 303 303 303 303 303 303 304 303 303 303 304 306 307 307 308 308 308 309 310 311 310 311 313 315 316 306 309 307 309 308 305 304 302
305 305 305 304 303 304 299 298 300 302 302 302 302 303 303 302 300 298 301 300 301 302 304 303 303 302 302 302 307 311 307 307 306 310 313 307 307 305 306 304 304 303 300
304 303 303 303 302 303 298 297 299 301 300 300 301 300 299 299 298 297 299 299 298 300 302 302 305 304 303 305 302 306 308 306 305 306 313 306 304 303 300 304 302 302 300
Wind_Speed
4 3 4 3 4 3 3 3 4 4 5 6 6 6 7 7 7 4 4 14 13 7 6 9 7 11 10 8 7 7 8 9 9 9 8 7 6 6 6 6 5 5 5
4 4 4 4 3 3 3 3 3 4 4 4 6 6 6 6 7 7 5 6 13 12 8 7 10 7 12 8 10 9 9 9 10 10 9 7 6 6 7 7 6 5 4
5 5 4 3 3 3 4 4 3 3 4 5 6 5 5 6 6 6 6 6 7 12 14 12 10 10 9 11 11 10 10 11 10 11 10 9 7 7 6 7 6 5 4
6 5 4 4 3 3 3 3 4 4 5 6 5 5 5 5 5 6 6 6 6 8 11 18 14 11 9 10 12 12 12 12 11 11 11 10 9 8 7 7 6 5 4
6 6 4 3 3 3 4 3 3 3 6 7 6 5 5 4 7 6 8 9 9 8 7 15 19 16 12 9 14 13 11 13 12 12 11 10 10 9 7 8 7 5 4
6 6 4 4 4 3 4 3 4 4 4 6 5 5 3 3 6 6 7 8 9 9 8 9 8 10 17 14 12 13 14 13 13 13 12 10 10 10 9 8 6 5 4
6 6 4 4 3 5 4 4 2 5 6 9 3 4 3 3 5 4 5 6 9 10 10 9 7 6 8 18 13 11 12 15 15 15 13 11 10 10 10 9 7 6 5
6 6 5 4 4 4 5 5 5 2 3 7 4 1 5 4 5 4 4 6 10 8 10 11 9 10 8 7 11 13 12 14 16 17 16 15 12 10 11 9 8 6 5
6 6 6 5 5 4 4 4 4 5 3 4 8 3 3 2 6 3 5 6 11 9 8 10 9 9 10 8 11 11 13 8 14 16 18 17 15 13 12 10 8 7 7
6 6 6 5 5 3 5 4 4 3 2 4 2 4 2 0 2 6 3 3 7 8 10 9 8 8 10 8 15 16 14 12 11 15 19 18 16 15 13 11 9 7 8
5 5 5 5 5 3 4 5 4 4 2 3 2 2 2 2 1 3 6 8 7 6 7 8 7 6 9 9 9 13 18 12 10 5 16 19 18 15 14 12 9 9 9
4 5 5 5 5 5 4 4 4 4 3 2 1 1 0 1 2 2 4 10 10 4 10 6 5 6 7 9 14 21 19 15 9 6 11 16 17 15 14 13 10 10 10
3 5 5 5 4 5 5 4 4 2 1 1 1 1 1 2 1 1 3 6 7 6 2 5 3 5 7 9 11 22 22 16 8 6 11 14 15 15 14 13 11 11 10
5 6 6 6 6 6 5 4 2 1 2 1 3 2 2 3 3 3 2 4 8 4 5 4 2 3 8 9 15 21 12 14 10 7 10 13 14 12 14 12 11 8 7
5 7 6 6 5 5 5 4 2 2 2 2 3 3 3 4 4 4 4 2 1 6 9 3 3 6 9 8 11 11 10 14 10 7 8 11 13 13 13 12 11 7 12
7 8 7 6 5 4 4 4 2 2 3 2 3 3 3 4 4 4 5 5 4 5 8 2 7 10 8 9 10 10 11 15 9 8 7 9 12 14 14 12 12 14 13
8 8 7 6 5 5 4 3 4 4 4 4 3 4 6 6 5 5 5 5 6 6 11 10 7 5 9 8 10 9 9 9 5 6 8 9 12 15 14 14 14 14 12
8 8 7 6 5 5 4 5 4 4 5 4 4 4 8 5 6 5 5 8 8 8 9 15 8 5 6 6 8 9 8 7 4 5 7 8 13 12 13 12 13 13 11
9 7 6 6 6 5 4 5 5 5 4 4 5 7 8 7 8 6 7 8 8 8 9 9 10 4 3 3 5 6 8 8 4 6 4 9 15 16 15 14 14 13 11
9 7 6 6 5 5 5 4 5 4 3 4 6 7 9 9 10 9 8 9 9 9 9 10 10 6 3 3 3 5 7 4 3 2 2 4 10 14 14 14 14 15 13
7 7 7 5 5 5 4 5 3 3 3 6 7 9 9 10 16 13 8 9 9 8 8 8 8 8 4 3 4 2 4 6 3 1 1 2 5 7 7 12 13 16 14
8 7 7 7 6 4 5 1 1 3 4 7 8 9 8 13 13 15 16 19 16 11 11 8 9 9 10 6 5 4 2 4 3 1 2 1 2 6 6 6 14 15 14
6 6 5 5 4 2 3 6 5 4 5 7 9 9 9 8 11 12 13 17 17 18 18 14 12 11 11 9 6 4 4 3 4 1 0 2 2 3 5 8 16 16 14
7 6 5 4 2 3 5 8 8 6 6 9 9 10 10 11 12 12 13 13 13 13 13 11 13 12 11 9 10 8 8 5 4 3 5 3 2 2 4 6 16 15 14
4 4 3 4 3 5 6 7 7 7 8 10 9 11 10 12 14 13 12 13 13 13 10 15 16 16 13 12 9 5 5 5 4 3 4 3 3 3 2 5 6 15 14
5 5 4 3 3 5 5 8 9 6 9 8 8 10 14 15 17 15 13 12 14 13 10 10 9 10 13 12 14 12 9 8 6 4 6 5 4 4 3 2 5 6 6
Wind_Direction
103 96 72 61 48 34 39 35 34 17 6 356 359 2 357 358 352 343 334 346 356 349 276 255 259 216 232 219 211 199 187 179 166 161 155 151 142 138 134 121 113 104 87
113 95 82 68 60 46 44 41 25 15 9 357 347 352 351 351 356 349 344 335 344 350 351 306 300 267 231 223 215 203 188 187 176 170 166 163 157 156 153 140 133 115 106
113 116 108 84 65 47 50 37 18 19 17 355 342 343 357 355 356 3 9 10 1 359 354 349 333 300 249 236 225 206 194 190 186 177 172 169 167 166 148 138 135 129 124
116 99 85 65 58 49 45 41 22 19 5 357 339 348 359 10 12 26 20 24 19 20 12 11 359 342 318 246 226 213 199 191 190 183 180 176 175 170 164 157 150 146 143
111 103 96 96 76 65 49 33 37 44 12 352 340 3 21 57 33 32 32 25 22 22 13 12 14 10 350 304 246 223 202 192 188 188 186 183 179 174 174 164 159 165 165
118 110 103 98 101 91 58 44 55 40 20 340 338 17 17 52 29 36 30 25 19 13 11 11 4 1 1 347 306 243 208 196 191 193 186 187 188 183 178 168 171 171 158
126 117 118 114 97 76 74 47 51 39 21 357 1 3 350 4 18 28 25 24 20 9 5 3 356 353 347 350 327 301 213 194 193 191 182 184 194 189 188 171 173 172 163
135 128 125 108 99 93 65 56 48 44 30 18 27 354 8 336 359 6 11 17 14 1 359 358 349 350 347 339 330 321 272 208 200 191 181 184 188 196 183 173 177 172 177
143 130 125 124 107 88 79 66 61 61 35 24 35 59 14 347 323 326 0 10 4 349 346 346 347 350 347 348 352 341 334 310 211 198 184 185 184 190 189 181 180 179 177
144 141 138 133 111 104 89 78 65 70 88 39 23 35 45 239 339 321 324 350 345 339 339 342 340 347 354 359 0 356 342 322 300 205 188 185 186 188 183 182 182 182 181
153 157 154 130 120 113 101 88 76 71 65 77 48 357 18 29 98 319 308 321 330 340 332 327 332 347 4 5 354 350 348 328 306 260 190 186 183 187 179 178 185 185 192
162 162 144 133 128 118 112 109 106 83 80 95 135 142 62 337 336 357 313 324 320 334 319 312 325 357 7 358 352 351 347 336 306 248 176 185 178 181 178 173 185 190 197
171 175 155 149 135 133 121 113 100 94 118 143 197 183 206 230 197 262 294 320 309 317 301 312 318 4 5 355 349 351 350 345 305 234 184 177 174 177 174 173 182 195 199
155 155 147 143 139 127 113 115 107 130 183 221 257 220 256 248 214 211 232 310 326 313 303 287 317 35 0 347 337 339 342 336 321 232 196 179 170 172 161 170 177 199 197
149 153 148 136 138 130 131 145 158 194 189 229 253 250 247 261 237 227 229 223 271 316 317 332 318 343 337 330 329 329 327 327 332 264 223 185 172 164 163 167 171 165 138
150 150 146 147 150 154 150 157 199 214 208 234 243 256 261 266 254 235 228 231 222 241 277 269 310 315 316 319 322 324 319 310 314 276 249 189 172 165 165 160 152 148 144
156 156 155 157 169 178 175 191 222 234 235 245 247 263 271 266 270 254 237 235 238 230 266 285 281 285 302 311 317 317 316 309 310 298 274 206 169 170 161 153 153 150 154
162 162 158 166 175 190 188 212 233 236 235 265 279 276 273 281 264 256 253 253 252 246 264 280 293 277 282 295 301 309 314 312 302 304 257 202 163 158 157 157 145 138 143
168 157 151 170 191 201 197 220 235 252 254 266 269 265 268 269 272 266 258 267 269 271 258 262 277 270 259 293 306 304 312 300 312 320 255 190 168 163 158 151 142 137 133
159 151 170 181 195 199 211 224 238 252 274 263 259 260 268 272 277 273 269 270 272 271 270 268 277 273 225 264 270 307 318 309 305 350 54 169 169 150 140 139 143 141 134
158 165 162 184 195 199 214 212 223 263 261 267 262 265 268 269 272 267 268 266 266 270 276 285 287 275 243 226 262 272 290 330 300 315 56 73 140 138 139 141 145 143 129
163 161 176 184 192 206 192 244 281 289 275 265 272 272 269 275 275 272 266 264 264 265 268 266 270 273 280 254 242 240 267 314 300 120 116 102 130 147 144 147 144 139 134
139 160 163 164 188 238 314 297 287 269 262 266 265 274 282 279 272 269 264 264 264 259 254 263 263 255 260 262 253 210 220 221 266 294 58 139 122 123 133 132 143 142 142
158 148 148 152 189 261 274 275 279 284 269 264 267 268 272 276 267 271 278 280 274 266 259 259 254 255 254 250 245 244 234 222 225 253 180 187 133 117 133 134 147 147 147
123 130 138 164 219 274 263 284 298 284 278 274 268 266 272 277 276 262 271 272 270 263 253 245 253 252 238 230 235 235 226 209 216 223 178 137 143 107 113 140 152 150 147
133 143 160 176 221 279 305 300 289 292 285 283 275 287 277 270 270 261 264 268 269 270 271 271 264 252 247 244 228 235 247 230 218 218 179 160 136 139 140 112 148 149 149